H1 CPF 2 NER 2023 9 3 9 246 01 glonass128 H2 1106401 9128 37867 2023 9 3 0 0 0 2023 9 6 23 45 0 900 1 1 0 0 0 1 H9 10 0 60190 0.00000 0 13804203.636 -2065330.755 -21294777.558 10 0 60190 900.00000 0 12269281.337 159181.107 -22312900.046 10 0 60190 1800.00000 0 10852329.488 2575278.212 -22895468.896 10 0 60190 2700.00000 0 9596598.418 5127804.296 -23031307.827 10 0 60190 3600.00000 0 8535161.024 7754558.763 -22717998.309 10 0 60190 4500.00000 0 7689637.588 10388678.818 -21961909.177 10 0 60190 5400.00000 0 7069424.853 12961222.666 -20778051.245 10 0 60190 6300.00000 0 6671459.583 15403845.006 -19189761.362 10 0 60190 7200.00000 0 6480523.888 17651452.650 -17228223.796 10 0 60190 8100.00000 0 6470076.438 19644729.565 -14931839.989 10 0 60190 9000.00000 0 6603571.546 21332426.705 -12345460.549 10 0 60190 9900.00000 0 6836207.711 22673322.420 -9519495.896 10 0 60190 10800.00000 0 7117029.506 23637773.581 -6508924.066 10 0 60190 11700.00000 0 7391292.383 24208795.073 -3372215.817 10 0 60190 12600.00000 0 7602989.510 24382625.238 -170198.507 10 0 60190 13500.00000 0 7697433.683 24168756.414 3035119.068 10 0 60190 14400.00000 0 7623785.679 23589431.885 6181738.390 10 0 60190 15300.00000 0 7337423.273 22678632.456 9208857.054 10 0 60190 16200.00000 0 6802052.320 21480596.632 12058026.880 10 0 60190 17100.00000 0 5991472.284 20047937.110 14674263.390 10 0 60190 18000.00000 0 4890923.192 18439432.372 17007086.904 10 0 60190 18900.00000 0 3497958.202 16717584.904 19011477.055 10 0 60190 19800.00000 0 1822805.373 14946046.573 20648724.241 10 0 60190 20700.00000 0 -111797.056 13187016.721 21887163.337 10 0 60190 21600.00000 0 -2271286.403 11498719.298 22702777.024 10 0 60190 22500.00000 0 -4610455.846 9933062.033 23079658.153 10 0 60190 23400.00000 0 -7075082.889 8533573.292 23010322.700 10 0 60190 24300.00000 0 -9603941.486 7333701.164 22495867.126 10 0 60190 25200.00000 0 -12131117.518 6355544.865 21545966.269 10 0 60190 26100.00000 0 -14588534.596 5609071.315 20178710.367 10 0 60190 27000.00000 0 -16908587.989 5091850.185 18420282.382 10 0 60190 27900.00000 0 -19026779.209 4789319.694 16304479.510 10 0 60190 28800.00000 0 -20884242.796 4675573.585 13872085.628 10 0 60190 29700.00000 0 -22430060.211 4714637.982 11170104.423 10 0 60190 30600.00000 0 -23623263.601 4862186.035 8250865.839 10 0 60190 31500.00000 0 -24434444.157 5067619.288 5171021.615 10 0 60190 32400.00000 0 -24846895.649 5276428.506 1990448.354 10 0 60190 33300.00000 0 -24857242.854 5432733.929 -1228920.798 10 0 60190 34200.00000 0 -24475526.139 5481896.375 -4424312.630 10 0 60190 35100.00000 0 -23724736.711 5373086.722 -7533353.596 10 0 60190 36000.00000 0 -22639820.684 5061702.347 -10495306.918 10 0 60190 36900.00000 0 -21266193.311 4511525.126 -13252280.744 10 0 60190 37800.00000 0 -19657826.156 3696526.471 -15750381.478 10 0 60190 38700.00000 0 -17874988.729 2602239.937 -17940787.554 10 0 60190 39600.00000 0 -15981741.242 1226640.735 -19780720.624 10 0 60190 40500.00000 0 -14043285.919 -419507.070 -21234293.646 10 0 60190 41400.00000 0 -12123290.227 -2312851.690 -22273218.261 10 0 60190 42300.00000 0 -10281296.314 -4418195.232 -22877357.128 10 0 60190 43200.00000 0 -8570326.712 -6689744.586 -23035110.559 10 0 60190 44100.00000 0 -7034787.370 -9072818.476 -22743630.527 10 0 60190 45000.00000 0 -5708755.771 -11505938.126 -22008858.881 10 0 60190 45900.00000 0 -4614724.782 -13923212.884 -20845390.481 10 0 60190 46800.00000 0 -3762853.006 -16256919.945 -19276165.458 10 0 60190 47700.00000 0 -3150750.476 -18440169.522 -17331998.359 10 0 60190 48600.00000 0 -2763805.568 -20409543.739 -15050955.041 10 0 60190 49500.00000 0 -2576036.111 -22107599.238 -12477591.064 10 0 60190 50400.00000 0 -2551425.599 -23485129.714 -9662067.875 10 0 60190 51300.00000 0 -2645685.312 -24503095.278 -6659165.182 10 0 60190 52200.00000 0 -2808365.678 -25134139.947 -3527209.602 10 0 60190 53100.00000 0 -2985226.088 -25363636.096 -326940.997 10 0 60190 54000.00000 0 -3120762.263 -25190214.701 2879661.347 10 0 60190 54900.00000 0 -3160784.297 -24625761.601 6030570.206 10 0 60190 55800.00000 0 -3054937.117 -23694882.127 9064897.093 10 0 60190 56700.00000 0 -2759058.059 -22433858.139 11924052.272 10 0 60190 57600.00000 0 -2237273.496 -20889142.079 14552857.102 10 0 60190 58500.00000 0 -1463747.588 -19115451.232 16900588.932 10 0 60190 59400.00000 0 -424010.713 -17173541.218 18921940.244 10 0 60190 60300.00000 0 884187.571 -15127750.330 20577875.493 10 0 60190 61200.00000 0 2450536.870 -13043415.245 21836370.874 10 0 60190 62100.00000 0 4252350.761 -10984263.526 22673024.269 10 0 60190 63000.00000 0 6255272.022 -9009889.046 23071524.715 10 0 60190 63900.00000 0 8414471.282 -7173413.177 23023972.807 10 0 60190 64800.00000 0 10676292.109 -5519427.144 22531045.764 10 0 60190 65700.00000 0 12980277.357 -4082299.824 21602003.148 10 0 60190 66600.00000 0 15261495.700 -2884920.836 20254531.730 10 0 60190 67500.00000 0 17453074.570 -1937931.340 18514430.501 10 0 60190 68400.00000 0 19488836.465 -1239475.349 16415139.624 10 0 60190 69300.00000 0 21305930.360 -775483.181 13997119.906 10 0 60190 70200.00000 0 22847349.139 -520476.625 11307092.378 10 0 60190 71100.00000 0 24064227.574 -438863.562 8397150.538 10 0 60190 72000.00000 0 24917823.444 -486668.809 5323760.818 10 0 60190 72900.00000 0 25381096.847 -613629.037 2146669.651 10 0 60190 73800.00000 0 25439818.997 -765563.350 -1072261.933 10 0 60190 74700.00000 0 25093161.319 -886918.611 -4270273.001 10 0 60190 75600.00000 0 24353737.634 -923380.227 -7384941.907 10 0 60190 76500.00000 0 23247095.696 -824435.596 -10355424.101 10 0 60190 77400.00000 0 21810678.175 -545778.835 -13123662.266 10 0 60190 78300.00000 0 20092296.335 -51451.870 -15635542.869 10 0 60190 79200.00000 0 18148180.985 684371.814 -17841974.326 10 0 60190 80100.00000 0 16040693.723 1676039.049 -19699863.656 10 0 60190 81000.00000 0 13835796.259 2925563.737 -21172970.967 10 0 60190 81900.00000 0 11600385.938 4422306.194 -22232624.025 10 0 60190 82800.00000 0 9399611.100 6143199.493 -22858278.390 10 0 60190 83700.00000 0 7294280.297 8053513.517 -23037912.285 10 0 60190 84600.00000 0 5338474.827 10108124.192 -22768249.090 10 0 60190 85500.00000 0 3577464.735 12253233.698 -22054804.136 10 0 60191 0.00000 0 2046014.905 14428468.163 -20911756.403 10 0 60191 900.00000 0 767149.813 16569264.890 -19361648.545 10 0 60191 1800.00000 0 -248571.719 18609445.127 -17434924.379 10 0 60191 2700.00000 0 -1003247.090 20483867.855 -15169312.581 10 0 60191 3600.00000 0 -1511279.115 22131050.349 -12609071.595 10 0 60191 4500.00000 0 -1798502.950 23495647.337 -9804111.400 10 0 60191 5400.00000 0 -1900830.655 24530685.689 -6809010.522 10 0 60191 6300.00000 0 -1862473.407 25199462.586 -3681948.312 10 0 60191 7200.00000 0 -1733818.551 25477029.559 -483573.812 10 0 60191 8100.00000 0 -1569052.591 25351202.449 2724166.616 10 0 60191 9000.00000 0 -1423631.106 24823057.217 5879220.440 10 0 60191 9900.00000 0 -1351702.316 23906892.937 8920616.394 10 0 60191 10800.00000 0 -1403592.257 22629665.173 11789626.301 10 0 60191 11700.00000 0 -1623456.422 21029914.566 14430880.241 10 0 60191 12600.00000 0 -2047195.392 19156235.810 16793415.182 10 0 60191 13500.00000 0 -2700720.830 17065350.538 18831638.744 10 0 60191 14400.00000 0 -3598643.659 14819863.376 20506191.394 10 0 60191 15300.00000 0 -4743439.041 12485792.865 21784692.251 10 0 60191 16200.00000 0 -6125123.383 10129977.765 22642355.642 10 0 60191 17100.00000 0 -7721458.007 7817464.064 23062467.620 10 0 60191 18000.00000 0 -9498672.814 5608978.789 23036713.791 10 0 60191 18900.00000 0 -11412682.355 3558593.339 22565352.041 10 0 60191 19800.00000 0 -13410746.602 1711671.587 21657226.058 10 0 60191 20700.00000 0 -15433510.449 103186.968 20329617.995 10 0 60191 21600.00000 0 -17417340.047 -1243521.920 18607941.197 10 0 60191 22500.00000 0 -19296861.272 -2317505.095 16525276.602 10 0 60191 23400.00000 0 -21007596.396 -3120432.026 14121759.293 10 0 60191 24300.00000 0 -22488589.956 -3666288.663 11443824.631 10 0 60191 25200.00000 0 -23684914.110 -3980551.906 8543326.367 10 0 60191 26100.00000 0 -24549947.688 -4098874.871 5476542.170 10 0 60191 27000.00000 0 -25047331.614 -4065337.314 2303084.783 10 0 60191 27900.00000 0 -25152516.203 -3930334.589 -915260.361 10 0 60191 28800.00000 0 -24853832.528 -3748194.654 -4115747.995 10 0 60191 29700.00000 0 -24153039.986 -3574625.004 -7235911.593 10 0 60191 30600.00000 0 -23065324.538 -3464099.497 -10214801.866 10 0 60191 31500.00000 0 -21618745.722 -3467298.181 -12994198.818 10 0 60191 32400.00000 0 -19853154.551 -3628711.460 -15519771.479 10 0 60191 33300.00000 0 -17818627.453 -3984513.002 -17742160.377 10 0 60191 34200.00000 0 -15573482.545 -4560794.273 -19617959.585 10 0 60191 35100.00000 0 -13181962.681 -5372237.779 -21110577.528 10 0 60191 36000.00000 0 -10711684.033 -6421286.943 -22190958.677 10 0 60191 36900.00000 0 -8230958.885 -7697848.761 -22838151.449 10 0 60191 37800.00000 0 -5806106.308 -9179542.227 -23039711.329 10 0 60191 38700.00000 0 -3498864.405 -10832481.785 -22791931.877 10 0 60191 39600.00000 0 -1364012.861 -12612562.056 -22099900.174 10 0 60191 40500.00000 0 552695.104 -14467188.658 -20977376.935 10 0 60191 41400.00000 0 2216206.089 -16337381.105 -19446505.253 10 0 60191 42300.00000 0 3603377.186 -18160158.211 -17537355.332 10 0 60191 43200.00000 0 4703676.031 -19871104.851 -15287315.788 10 0 60191 44100.00000 0 5519344.203 -21407011.810 -12740344.990 10 0 60191 45000.00000 0 6065020.654 -22708477.826 -9946098.498 10 0 60191 45900.00000 0 6366844.570 -23722365.178 -6958950.779 10 0 60191 46800.00000 0 6461078.682 -24404006.815 -3836931.159 10 0 60191 47700.00000 0 6392313.782 -24719073.966 -640595.291 10 0 60191 48600.00000 0 6211332.177 -24645027.715 2568145.748 10 0 60191 49500.00000 0 5972721.463 -24172095.697 5727216.248 10 0 60191 50400.00000 0 5732339.670 -23303734.908 8775564.049 10 0 60191 51300.00000 0 5544738.402 -22056562.895 11654324.170 10 0 60191 52200.00000 0 5460651.620 -20459761.384 14307936.796 10 0 60191 53100.00000 0 5524654.518 -18553977.806 16685199.656 10 0 60191 54000.00000 0 5773089.543 -16389770.398 18740236.380 10 0 60191 54900.00000 0 6232345.373 -14025660.695 20433364.068 10 0 60191 55800.00000 0 6917560.132 -11525872.918 21731845.117 10 0 60191 56700.00000 0 7831802.904 -8957852.012 22610510.392 10 0 60191 57600.00000 0 8965768.215 -6389660.886 23052242.822 10 0 60191 58500.00000 0 10297997.501 -3887362.240 23048312.660 10 0 60191 59400.00000 0 11795620.314 -1512491.072 22598557.908 10 0 60191 60300.00000 0 13415586.925 680279.452 21711405.663 10 0 60191 61200.00000 0 15106343.863 2645183.404 20403732.616 10 0 60191 62100.00000 0 16809885.511 4347034.737 18700565.499 10 0 60191 63000.00000 0 18464098.958 5762457.748 16634624.940 10 0 60191 63900.00000 0 20005306.385 6880623.569 14245719.090 10 0 60191 64800.00000 0 21370900.210 7703460.927 11579996.281 10 0 60191 65700.00000 0 22501961.162 8245331.034 8689068.985 10 0 60191 66600.00000 0 23345749.098 8532178.810 5629024.374 10 0 60191 67500.00000 0 23857960.554 8600194.983 2459339.564 10 0 60191 68400.00000 0 24004655.961 8494044.642 -758277.733 10 0 60191 69300.00000 0 23763772.664 8264736.958 -3961100.182 10 0 60191 70200.00000 0 23126157.082 7967226.715 -7086618.748 10 0 60191 71100.00000 0 22096069.616 7657850.568 -10073781.772 10 0 60191 72000.00000 0 20691138.561 7391708.632 -12864208.905 10 0 60191 72900.00000 0 18941763.105 7220104.855 -15403353.947 10 0 60191 73800.00000 0 16889989.452 7188157.369 -17641591.607 10 0 60191 74700.00000 0 14587907.116 7332682.761 -19535204.921 10 0 60191 75600.00000 0 12095633.254 7680446.244 -21047252.389 10 0 60191 76500.00000 0 9478970.697 8246853.670 -22148296.775 10 0 60191 77400.00000 0 6806839.304 9035141.942 -22816980.773 10 0 60191 78300.00000 0 4148589.656 10036102.522 -23040438.311 10 0 60191 79200.00000 0 1571312.699 11228349.577 -22814534.041 10 0 60191 80100.00000 0 -862741.403 12579120.667 -22143927.329 10 0 60191 81000.00000 0 -3098527.308 14045575.032 -21041960.858 10 0 60191 81900.00000 0 -5090253.396 15576533.381 -19530377.599 10 0 60191 82800.00000 0 -6803031.459 17114584.455 -17638873.363 10 0 60191 83700.00000 0 -8214060.585 18598468.416 -15404495.361 10 0 60191 84600.00000 0 -9313298.696 19965635.851 -12870900.099 10 0 60191 85500.00000 0 -10103597.005 21154874.240 -10087486.523 10 0 60192 0.00000 0 -10600295.363 22108891.429 -7108422.795 10 0 60192 900.00000 0 -10830299.196 22776748.568 -3991584.907 10 0 60192 1800.00000 0 -10830679.385 23116040.088 -797432.421 10 0 60192 2700.00000 0 -10646857.456 23094732.396 2412161.935 10 0 60192 3600.00000 0 -10330453.592 22692584.420 5575102.383 10 0 60192 4500.00000 0 -9936889.416 21902092.736 8630258.958 10 0 60192 5400.00000 0 -9522846.657 20728923.175 11518632.890 10 0 60192 6300.00000 0 -9143688.134 19191812.010 14184477.349 10 0 60192 7200.00000 0 -8850948.483 17321941.545 16576353.530 10 0 60192 8100.00000 0 -8689998.670 15161816.119 18648103.554 10 0 60192 9000.00000 0 -8697980.868 12763684.600 20359723.373 10 0 60192 9900.00000 0 -8902099.022 10187573.557 21678120.586 10 0 60192 10800.00000 0 -9318335.855 7499010.737 22577744.168 10 0 60192 11700.00000 0 -9950649.816 4766530.794 23041075.100 10 0 60192 12600.00000 0 -10790686.071 2059063.956 23058969.029 10 0 60192 13500.00000 0 -11818014.962 -556686.870 22630844.326 10 0 60192 14400.00000 0 -13000889.962 -3018774.318 21764711.225 10 0 60192 15300.00000 0 -14297496.041 -5272337.236 20477040.133 10 0 60192 16200.00000 0 -15657639.079 -7271638.406 18792469.784 10 0 60192 17100.00000 0 -17024808.540 -8981725.238 16743358.578 10 0 60192 18000.00000 0 -18338529.539 -10379644.146 14369185.315 10 0 60192 18900.00000 0 -19536907.642 -11455157.166 11715808.454 10 0 60192 19800.00000 0 -20559260.714 -12210929.676 8834596.005 10 0 60192 20700.00000 0 -21348727.287 -12662179.852 5781441.218 10 0 60192 21600.00000 0 -21854740.852 -12835803.221 2615682.019 10 0 60192 22500.00000 0 -22035264.064 -12769008.070 -601055.219 10 0 60192 23400.00000 0 -21858686.128 -12507518.707 -3806064.691 10 0 60192 24300.00000 0 -21305300.410 -12103422.614 -6936798.352 10 0 60192 25200.00000 0 -20368296.821 -11612753.412 -9932105.535 10 0 60192 26100.00000 0 -19054224.236 -11092913.571 -12733448.693 10 0 60192 27000.00000 0 -17382901.025 -10600048.126 -15286069.269 10 0 60192 27900.00000 0 -15386775.751 -10186483.164 -17540078.673 10 0 60192 28800.00000 0 -13109764.013 -9898340.122 -19451450.971 10 0 60192 29700.00000 0 -10605610.220 -9773429.316 -20982896.250 10 0 60192 30600.00000 0 -7935843.585 -9839513.757 -22104596.470 10 0 60192 31500.00000 0 -5167415.144 -10113018.052 -22794788.828 10 0 60192 32400.00000 0 -2370116.015 -10598237.543 -23040185.262 10 0 60192 33300.00000 0 386113.880 -11287081.012 -22836220.443 10 0 60192 34200.00000 0 3033873.176 -12159357.010 -22187124.397 10 0 60192 35100.00000 0 5510869.849 -13183590.463 -21105819.680 10 0 60192 36000.00000 0 7762268.405 -14318333.454 -19613646.668 10 0 60192 36900.00000 0 9742716.468 -15513913.177 -17739924.009 10 0 60192 37800.00000 0 11417968.024 -16714541.693 -15521354.511 10 0 60192 38700.00000 0 12766037.998 -17860697.206 -13001289.648 10 0 60192 39600.00000 0 13777843.007 -18891675.495 -10228868.478 10 0 60192 40500.00000 0 14457304.872 -19748203.614 -7258048.982 10 0 60192 41400.00000 0 14820916.109 -20375005.873 -4146551.575 10 0 60192 42300.00000 0 14896788.956 -20723214.730 -954735.988 10 0 60192 43200.00000 0 14723230.816 -20752526.254 2255566.469 10 0 60192 44100.00000 0 14346908.258 -20433010.978 5422242.761 10 0 60192 45000.00000 0 13820678.319 -19746505.616 8484087.620 10 0 60192 45900.00000 0 13201178.963 -18687528.766 11381970.615 10 0 60192 46800.00000 0 12546279.927 -17263683.426 14059959.621 10 0 60192 47700.00000 0 11912500.248 -15495530.249 16466380.589 10 0 60192 48600.00000 0 11352499.629 -13415936.953 18554794.999 10 0 60192 49500.00000 0 10912747.321 -11068930.409 20284878.102 10 0 60192 50400.00000 0 10631464.646 -8508097.902 21623182.752 10 0 60192 51300.00000 0 10536926.032 -5794602.009 22543775.724 10 0 60192 52200.00000 0 10646188.776 -2994888.993 23028735.417 10 0 60192 53100.00000 0 10964304.538 -178182.891 23068501.939 10 0 60192 54000.00000 0 11484046.078 2586133.766 22662072.865 10 0 60192 54900.00000 0 12186161.994 5231146.866 21817040.201 10 0 60192 55800.00000 0 13040150.815 7694938.688 20549466.552 10 0 60192 56700.00000 0 14005524.477 9922913.832 18883601.025 10 0 60192 57600.00000 0 15033510.928 11869827.521 16851438.068 10 0 60192 58500.00000 0 16069127.035 13501432.087 14492125.330 10 0 60192 59400.00000 0 17053536.900 14795672.528 11851229.520 10 0 60192 60300.00000 0 17926597.946 15743380.102 8979872.232 10 0 60192 61200.00000 0 18629488.196 16348433.431 5933750.762 10 0 60192 62100.00000 0 19107303.645 16627378.825 2772061.735 10 0 60192 63000.00000 0 19311514.818 16608524.341 -443651.977 10 0 60192 63900.00000 0 19202176.626 16330544.799 -3650708.277 10 0 60192 64800.00000 0 18749795.363 15840656.255 -6786522.242 10 0 60192 65700.00000 0 17936770.872 15192437.417 -9789846.236 10 0 60192 66600.00000 0 16758349.810 14443391.254 -12601987.410 10 0 60192 67500.00000 0 15223046.976 13652351.723 -15167976.574 10 0 60192 68400.00000 0 13352514.617 12876847.564 -17437663.378 10 0 60192 69300.00000 0 11180863.691 12170537.133 -19366714.281 10 0 60192 70200.00000 0 8753464.894 11580825.163 -20917492.176 10 0 60192 71100.00000 0 6125279.773 11146764.221 -22059799.301 10 0 60192 72000.00000 0 3358792.599 10897331.038 -22771468.302 10 0 60192 72900.00000 0 521630.647 10850151.261 -23038789.911 10 0 60192 73800.00000 0 -2316026.411 11010726.456 -22856769.387 10 0 60192 74700.00000 0 -5084138.598 11372195.231 -22229207.701 10 0 60192 75600.00000 0 -7715486.119 11915637.176 -21168607.204 10 0 60192 76500.00000 0 -10148226.211 12610904.957 -19695905.194 10 0 60192 77400.00000 0 -12328220.160 13417947.397 -17840042.252 10 0 60192 78300.00000 0 -14211034.683 14288565.636 -15637375.464 10 0 60192 79200.00000 0 -15763536.135 15168526.419 -13130949.587 10 0 60192 80100.00000 0 -16965013.537 15999941.844 -10369641.806 10 0 60192 81000.00000 0 -17807786.606 16723814.187 -7407197.966 10 0 60192 81900.00000 0 -18297276.670 17282638.093 -4301179.968 10 0 60192 82800.00000 0 -18451540.821 17622950.545 -1111845.436 10 0 60192 83700.00000 0 -18300291.948 17697721.882 2099018.345 10 0 60192 84600.00000 0 -17883448.327 17468488.293 5269283.772 10 0 60192 85500.00000 0 -17249275.623 16907137.418 8337672.989 10 0 60193 0.00000 0 -16452200.489 15997273.539 11244926.383 10 0 60193 900.00000 0 -15550387.442 14735105.766 13934929.761 10 0 60193 1800.00000 0 -14603181.348 13129824.157 16355776.180 10 0 60193 2700.00000 0 -13668520.259 11203446.728 18460748.974 10 0 60193 3600.00000 0 -12800426.516 8990144.506 20209204.983 10 0 60193 4500.00000 0 -12046679.067 6535071.194 21567344.339 10 0 60193 5400.00000 0 -11446762.755 3892744.398 22508853.329 10 0 60193 6300.00000 0 -11030178.989 1125043.170 23015409.092 10 0 60193 7200.00000 0 -10815187.577 -1701097.873 23077037.107 10 0 60193 8100.00000 0 -10808032.130 -4516205.328 22692314.589 10 0 60193 9000.00000 0 -11002682.041 -7250893.431 21868415.271 10 0 60193 9900.00000 0 -11381103.100 -9838493.881 20620993.394 10 0 60193 10800.00000 0 -11914047.327 -12217582.157 18973907.356 10 0 60193 11700.00000 0 -12562331.207 -14334296.844 16958786.078 10 0 60193 12600.00000 0 -13278551.083 -16144356.088 14614444.017 10 0 60193 13500.00000 0 -14009165.813 -17614686.985 11986153.677 10 0 60193 14400.00000 0 -14696860.806 -18724598.964 9124787.445 10 0 60193 15300.00000 0 -15283094.777 -19466450.609 6085843.609 10 0 60193 16200.00000 0 -15710721.886 -19845780.273 2928374.255 10 0 60193 17100.00000 0 -15926577.621 -19880893.274 -286164.596 10 0 60193 18000.00000 0 -15883917.362 -19601921.657 -3495117.950 10 0 60193 18900.00000 0 -15544601.959 -19049395.258 -6635867.417 10 0 60193 19800.00000 0 -14880934.898 -18272384.223 -9647071.749 10 0 60193 20700.00000 0 -13877070.112 -17326292.013 -12469886.037 10 0 60193 21600.00000 0 -12529927.904 -16270393.462 -15049133.524 10 0 60193 22500.00000 0 -10849577.565 -15165223.837 -17334404.886 10 0 60193 23400.00000 0 -8859068.522 -14069931.462 -19281061.394 10 0 60193 24300.00000 0 -6593715.776 -13039708.046 -20851120.685 10 0 60193 25200.00000 0 -4099869.132 -12123407.324 -22014006.650 10 0 60193 26100.00000 0 -1433218.049 -11361454.126 -22747148.153 10 0 60193 27000.00000 0 1343296.138 -10784133.026 -23036414.846 10 0 60193 27900.00000 0 4161872.242 -10410328.889 -22876382.104 10 0 60193 28800.00000 0 6952444.353 -10246771.766 -22270420.809 10 0 60193 29700.00000 0 9645370.770 -10287816.578 -21230611.599 10 0 60193 30600.00000 0 12174103.992 -10515764.917 -19777486.764 10 0 60193 31500.00000 0 14477730.346 -10901713.040 -17939606.516 10 0 60193 32400.00000 0 16503274.047 -11406887.829 -15752979.602 10 0 60193 33300.00000 0 18207670.924 -11984411.949 -13260341.138 10 0 60193 34200.00000 0 19559331.495 -12581421.675 -10510303.228 10 0 60193 35100.00000 0 20539230.706 -13141446.367 -7556396.154 10 0 60193 36000.00000 0 21141481.808 -13606948.200 -4456019.703 10 0 60193 36900.00000 0 21373373.472 -13921914.550 -1269325.728 10 0 60193 37800.00000 0 21254871.688 -14034393.941 1941946.147 10 0 60193 38700.00000 0 20817610.044 -13898869.354 5115657.207 10 0 60193 39600.00000 0 20103412.905 -13478370.074 8190460.182 10 0 60193 40500.00000 0 19162414.890 -12746234.481 11106969.558 10 0 60193 41400.00000 0 18050856.192 -11687450.968 13808890.338 10 0 60193 42300.00000 0 16828645.998 -10299521.725 16244085.034 10 0 60193 43200.00000 0 15556795.261 -8592813.714 18365560.114 10 0 60193 44100.00000 0 14294824.811 -6590382.034 20132354.781 10 0 60193 45000.00000 0 13098255.474 -4327272.214 21510316.751 10 0 60193 45900.00000 0 12016283.160 -1849328.888 22472751.663 10 0 60193 46800.00000 0 11089734.273 788441.872 23000934.847 10 0 60193 47700.00000 0 10349385.440 3523891.358 23084476.220 10 0 60193 48600.00000 0 9814716.892 6290047.497 22721531.381 10 0 60193 49500.00000 0 9493151.412 9017641.621 21918854.228 10 0 60193 50400.00000 0 9379811.292 11637740.875 20691688.833 10 0 60193 51300.00000 0 9457804.680 14084379.553 19063500.880 10 0 60193 52200.00000 0 9699031.137 16297081.910 17065551.585 10 0 60193 53100.00000 0 10065474.654 18223172.495 14736319.908 10 0 60193 54000.00000 0 10510931.880 19819777.913 12120781.751 10 0 60193 54900.00000 0 10983104.636 21055435.773 9269557.810 10 0 60193 55800.00000 0 11425969.730 21911242.162 6237944.828 10 0 60193 56700.00000 0 11782326.512 22381487.768 3084847.798 10 0 60193 57600.00000 0 11996414.074 22473754.013 -128366.654 10 0 60193 58500.00000 0 12016486.042 22208463.309 -3339073.107 10 0 60193 59400.00000 0 11797231.805 21617901.021 -6484622.033 10 0 60193 60300.00000 0 11301938.912 20744749.596 -9503580.701 10 0 60193 61200.00000 0 10504301.944 19640196.723 -12336954.033 10 0 60193 62100.00000 0 9389798.142 18361698.133 -14929359.321 10 0 60193 63000.00000 0 7956568.662 16970490.937 -17230129.620 10 0 60193 63900.00000 0 6215765.779 15528964.380 -19194322.116 10 0 60193 64800.00000 0 4191349.594 14098001.118 -20783610.084 10 0 60193 65700.00000 0 1919341.735 12734403.209 -21967039.784 10 0 60193 66600.00000 0 -553432.884 11488513.058 -22721636.835 10 0 60193 67500.00000 0 -3171063.103 10402130.687 -23032850.180 10 0 60193 68400.00000 0 -5870654.646 9506815.411 -22894825.448 10 0 60193 69300.00000 0 -8584730.263 8822642.960 -22310503.306 10 0 60193 70200.00000 0 -11243825.522 8357469.105 -21291542.223 10 0 60193 71100.00000 0 -13779171.043 8106728.800 -19858068.661 10 0 60193 72000.00000 0 -16125348.782 8053776.811 -18038261.285 10 0 60193 72900.00000 0 -18222811.726 8170752.682 -15867778.971 10 0 60193 73800.00000 0 -20020162.642 8419930.764 -13389045.379 10 0 60193 74700.00000 0 -21476098.252 8755495.729 -10650405.507 10 0 60193 75600.00000 0 -22560939.696 9125666.460 -7705171.884 10 0 60193 76500.00000 0 -23257687.888 9475077.016 -4610579.901 10 0 60193 77400.00000 0 -23562562.431 9747313.192 -1426673.278 10 0 60193 78300.00000 0 -23485004.449 9887497.272 1784858.428 10 0 60193 79200.00000 0 -23047145.911 9844812.251 4961867.854 10 0 60193 80100.00000 0 -22282769.997 9574859.897 8042940.826 10 0 60193 81000.00000 0 -21235807.756 9041754.421 10968568.215 10 0 60193 81900.00000 0 -19958434.991 8219864.955 13682277.286 10 0 60193 82800.00000 0 -18508849.247 7095134.685 16131702.217 10 0 60193 83700.00000 0 -16948819.321 5665922.108 18269574.969 10 0 60193 84600.00000 0 -15341108.475 3943329.359 20054619.269 10 0 60193 85500.00000 0 -13746877.249 1951003.398 21452332.297 99